Location: De Har
(53.3413°N, 6.6858°E)
Time: 16:51:31
(UTC+00:00)

ALOS - Pass Details

Date: 22 April 2026
Orbit: 660 x 663 km, 98.1° (Epoch: 9 May)

Event Time Altitude Azimuth Distance (km) Brightness Sun altitude
Rises 02:08:54 0° 18° (NNE) 3,008 6.9 -16.4°
Reaches altitude 10° 02:11:12 10° 24° (NNE) 2,090 6.0 -16.2°
Maximum altitude 02:15:37 48° 99° (E) 871 3.0 -15.8°
Enters shadow 02:19:35 12° 173° (S) 1,914 4.2 -15.4°
